Location: Ward Pound Ridge Reservation
(41.2500°N, 73.6000°W)
Time: 14:52:42
(UTC-04:00)

Envisat - Pass Details

Date: 10 October 2017
Orbit: 764 x 766 km, 98.2° (Epoch: 22 October)

Event Time Altitude Azimuth Distance (km) Brightness Sun altitude
Exits shadow 21:07:41 50° 292° (WNW) 976 3.8 -31.7°
Drops below altitude 10° 21:11:56 10° 338° (NNW) 2,310 5.9 -32.5°
Sets 21:14:18 0° 343° (NNW) 3,240 6.7 -32.9°
